TimeCDT,TemperatureF,Dew PointF,Humidity,Sea Level PressureIn,VisibilityMPH,Wind Direction,Wind SpeedMPH,Gust SpeedMPH,PrecipitationIn,Events,Conditions,WindDirDegrees,DateUTC
12:53 AM,69.1,68.0,96,29.99,6.0,ESE,3.5,-,0.07,Rain,Light Rain,110,2013-07-26 05:53:00
1:53 AM,70.0,68.0,93,29.99,4.0,Calm,Calm,-,0.03,Rain,Rain,0,2013-07-26 06:53:00
2:00 AM,69.8,68.0,94,30.00,1.8,SSW,8.1,-,0.05,Rain,Rain,200,2013-07-26 07:00:00
2:05 AM,69.8,66.2,88,30.00,3.0,WSW,8.1,-,0.09,Rain,Heavy Rain,250,2013-07-26 07:05:00
2:53 AM,69.1,68.0,96,29.97,10.0,WSW,5.8,-,0.10,Rain,Light Rain,250,2013-07-26 07:53:00
3:53 AM,68.0,66.9,96,29.96,9.0,Calm,Calm,-,0.00,,Mostly Cloudy,0,2013-07-26 08:53:00
4:29 AM,69.8,68.0,94,29.99,7.0,SE,3.5,-,N/A,,Overcast,130,2013-07-26 09:29:00
4:53 AM,69.1,69.1,100,29.98,6.0,Calm,Calm,-,N/A,,Overcast,0,2013-07-26 09:53:00
5:53 AM,70.0,68.0,93,29.98,6.0,Calm,Calm,-,N/A,,Mostly Cloudy,0,2013-07-26 10:53:00
6:05 AM,69.8,68.0,94,30.00,5.0,Calm,Calm,-,N/A,,Scattered Clouds,0,2013-07-26 11:05:00
6:11 AM,69.8,68.0,94,30.00,1.5,Calm,Calm,-,N/A,,Partly Cloudy,0,2013-07-26 11:11:00
6:13 AM,68.0,68.0,100,30.00,0.8,Calm,Calm,-,N/A,,Partly Cloudy,0,2013-07-26 11:13:00
6:21 AM,68.0,68.0,100,30.00,0.5,Calm,Calm,-,N/A,Fog,Fog,0,2013-07-26 11:21:00
6:25 AM,69.8,68.0,94,30.00,1.2,Calm,Calm,-,N/A,,Partly Cloudy,0,2013-07-26 11:25:00
6:29 AM,68.0,68.0,100,30.00,0.8,Calm,Calm,-,N/A,,Mist,0,2013-07-26 11:29:00
6:40 AM,66.2,66.2,100,30.00,0.2,Calm,Calm,-,N/A,Fog,Fog,0,2013-07-26 11:40:00
6:53 AM,68.0,68.0,100,29.99,0.5,Calm,Calm,-,N/A,Fog,Fog,0,2013-07-26 11:53:00
7:00 AM,66.2,66.2,100,30.01,0.2,Calm,Calm,-,N/A,Fog,Fog,0,2013-07-26 12:00:00
7:05 AM,68.0,68.0,100,30.01,1.0,Calm,Calm,-,N/A,,Mist,0,2013-07-26 12:05:00
7:09 AM,69.8,68.0,94,30.01,2.0,Calm,Calm,-,N/A,,Partly Cloudy,0,2013-07-26 12:09:00
7:20 AM,69.8,69.8,100,30.01,3.0,Calm,Calm,-,N/A,,Partly Cloudy,0,2013-07-26 12:20:00
7:40 AM,69.8,69.8,100,30.01,5.0,WNW,3.5,-,N/A,,Mostly Cloudy,300,2013-07-26 12:40:00
7:53 AM,70.0,69.1,97,30.00,6.0,NW,4.6,-,N/A,,Overcast,310,2013-07-26 12:53:00
8:51 AM,73.4,69.8,88,30.03,10.0,Variable,5.8,-,N/A,,Scattered Clouds,0,2013-07-26 13:51:00
8:53 AM,73.9,70.0,87,30.01,10.0,NW,4.6,-,N/A,,Scattered Clouds,310,2013-07-26 13:53:00
9:12 AM,73.4,69.8,88,30.04,10.0,Calm,Calm,-,N/A,,Mostly Cloudy,0,2013-07-26 14:12:00
9:53 AM,75.0,70.0,84,30.03,10.0,NW,6.9,-,N/A,,Mostly Cloudy,320,2013-07-26 14:53:00
10:25 AM,77.0,69.8,78,30.05,10.0,North,8.1,-,N/A,,Scattered Clouds,350,2013-07-26 15:25:00
10:53 AM,78.1,69.1,74,30.04,10.0,North,10.4,-,N/A,,Partly Cloudy,360,2013-07-26 15:53:00
11:53 AM,78.1,68.0,71,30.05,10.0,NNW,9.2,-,N/A,,Partly Cloudy,340,2013-07-26 16:53:00
12:53 PM,79.0,66.0,64,30.05,10.0,North,11.5,19.6,N/A,,Partly Cloudy,350,2013-07-26 17:53:00
1:53 PM,82.0,63.0,52,30.04,10.0,NNW,8.1,-,N/A,,Clear,340,2013-07-26 18:53:00
2:53 PM,82.0,62.1,51,30.03,10.0,North,12.7,-,N/A,,Clear,350,2013-07-26 19:53:00
3:53 PM,81.0,57.9,45,30.03,10.0,NNW,10.4,20.7,N/A,,Clear,330,2013-07-26 20:53:00
4:53 PM,80.1,55.0,42,30.03,10.0,NNW,9.2,-,N/A,,Clear,340,2013-07-26 21:53:00
5:53 PM,80.1,55.0,42,30.03,10.0,North,9.2,18.4,N/A,,Clear,350,2013-07-26 22:53:00
6:53 PM,78.1,55.0,45,30.04,10.0,North,8.1,-,N/A,,Clear,360,2013-07-26 23:53:00
7:53 PM,73.9,57.0,55,30.04,10.0,North,8.1,-,N/A,,Clear,10,2013-07-27 00:53:00
8:53 PM,69.1,55.0,61,30.05,10.0,North,6.9,-,N/A,,Clear,360,2013-07-27 01:53:00
9:53 PM,64.9,55.0,70,30.07,10.0,North,5.8,-,N/A,,Clear,360,2013-07-27 02:53:00
10:53 PM,62.1,55.9,80,30.08,10.0,NNW,3.5,-,N/A,,Clear,340,2013-07-27 03:53:00
11:53 PM,60.1,55.0,83,30.09,10.0,Calm,Calm,-,N/A,,Clear,0,2013-07-27 04:53:00